Station PRDA2 - 9497645 - Prudhoe Bay, AK Image indicating link to RSS feed of recent meteorological observations for station PRDA2


Conditions at PRDA2 as of
(10:30 pm AKDT on 06/16/2024)
0630 GMT on 06/17/2024:
     

Click on the graph icon in the table below to see a time series plot of the last five days of that observation.

5-day plot - Wind Direction Wind Direction (WDIR):ESE ( 110 deg true )
5-day plot - Wind Speed Wind Speed (WSPD): 13.0 kts
5-day plot - Wind Gust Wind Gust (GST): 15.0 kts
5-day plot - Atmospheric Pressure Atmospheric Pressure (PRES):30.01 in
5-day plot - Air Temperature Air Temperature (ATMP): 33.3 °F
5-day plot - Water Temperature Water Temperature (WTMP): 32.2 °F
5-day plot - Wind Chill Wind Chill (CHILL): 23.2 °F
5-day plot - Wind Speed at 10 Meters Wind Speed at 10 meters (WSPD10M): 13.6 kts
5-day plot - Wind Speed at 20 Meters Wind Speed at 20 meters (WSPD20M): 13.6 kts
5-day plot -  Wind Speed, Wind Gust and Atmospheric Pressure Combined plot of Wind Speed, Gust, and Air Pressure
NOS Water Level Observation Network Water Level
Previous observations
TIME
(AKDT)
5-day plot - Wind Direction
WDIR
 
5-day plot - Wind Speed
WSPD
kts
5-day plot - Wind Gust
GST
kts
5-day plot - Wave Height
WVHT
ft
5-day plot - Dominant Wave Period
DPD
sec
5-day plot - Average Wave Period
APD
sec
5-day plot - Mean Wave Direction
MWD
 
5-day plot - Atmospheric Pressure
PRES
in
5-day plot - Pressure Tendency
PTDY
in
5-day plot - Air Temperature
ATMP
°F
5-day plot - Water Temperature
WTMP
°F
5-day plot - Dew Point
DEWP
°F
5-day plot - Salinity
SAL
psu
5-day plot - Visibility
VIS
nmi
5-day plot - Tide (above MLLW)
TIDE
ft
2024-06-16 10:24 pmESE 14.0 15.9----30.01- 33.1 32.2----
2024-06-16 10:18 pmESE 14.0 15.9----30.01- 33.1 32.4----
2024-06-16 10:12 pmESE 14.0 15.0----30.01- 33.1 32.4----
2024-06-16 10:06 pmESE 13.0 15.0----30.01- 32.9 32.2----
2024-06-16 10:00 pmESE 13.0 15.0----30.01-0.04 33.3 32.4----
2024-06-16 09:54 pmESE 13.0 15.0----30.01- 33.4 32.4----
2024-06-16 09:48 pmESE 14.0 15.0----30.01- 33.4 32.2----
2024-06-16 09:42 pmESE 13.0 14.0----30.02- 33.4 32.2----
2024-06-16 09:36 pmESE 12.0 13.0----30.02- 33.4 32.2----
2024-06-16 09:30 pmESE 12.0 15.0----30.02- 33.3 32.2----
2024-06-16 09:24 pmESE 14.0 15.0----30.02- 33.4 32.4----
2024-06-16 09:18 pmESE 14.0 15.0------ 33.6 32.2----
2024-06-16 09:12 pmESE 12.0 13.0------ 33.6 32.4----
2024-06-16 09:06 pmESE 12.0 12.0------ 33.6 32.4----
2024-06-16 09:00 pmESE 12.0 13.0----30.03-0.03- 32.4----
2024-06-16 08:54 pmESE 12.0 13.0----30.03-- 32.4----
2024-06-16 08:48 pmESE 12.0 14.0----30.03-- 32.4----
2024-06-16 08:42 pmESE 12.0 14.0----30.03-- 32.4----
2024-06-16 08:36 pmESE 12.0 14.0----30.03-- 32.4----
2024-06-16 08:30 pmESE 13.0 14.0----30.03-- 32.4----
2024-06-16 08:24 pmESE 13.0 15.0----30.03-- 32.4----
2024-06-16 08:18 pmESE 13.0 14.0----30.03- 34.2 32.4----
2024-06-16 08:12 pmESE 13.0 14.0----30.03- 34.5 32.4----
2024-06-16 08:06 pmESE 13.0 14.0----30.03- 34.3 32.4----
2024-06-16 08:00 pm-------30.03-0.04 34.3 32.4----
2024-06-16 07:54 pm-------30.04- 34.3 32.4----
2024-06-16 07:48 pmESE 12.0 14.0----30.04-- 32.4----
2024-06-16 07:42 pmESE 13.0 14.0----30.04-- 32.4----
2024-06-16 07:36 pmESE 13.0 14.0----30.04-- 32.2----
2024-06-16 07:30 pmESE 13.0 13.0----30.04- 34.0 32.2----
2024-06-16 07:24 pm E 13.0 13.0----30.04- 34.3 32.4----
2024-06-16 07:18 pm E 12.0 12.0----30.05- 34.3 32.4----
2024-06-16 07:12 pm E 11.1 12.0----30.05- 34.3 32.4----
2024-06-16 07:06 pm E 11.1 12.0----30.05- 34.7 32.4----
2024-06-16 07:00 pmESE 11.1 12.0----30.05-0.03 34.5 32.4----
2024-06-16 06:54 pmESE 11.1 12.0----30.05- 34.3 32.4----
2024-06-16 06:48 pmESE 12.0 12.0----30.06- 34.2 32.4----
2024-06-16 06:42 pm E 12.0 12.0----30.05- 34.0 32.4----
2024-06-16 06:36 pm E 12.0 13.0----30.05- 34.0 32.5----
2024-06-16 06:30 pm E 12.0 13.0----30.05- 34.2 32.4----
2024-06-16 06:24 pm E 12.0 12.0----30.05- 34.3 32.4----
2024-06-16 06:18 pm E 12.0 12.0----30.06- 34.3 32.4----
2024-06-16 06:12 pm E 12.0 12.0----30.06- 34.5 32.4----
2024-06-16 06:06 pm E 12.0 12.0----30.06- 34.7 32.4----
2024-06-16 06:00 pm E 12.0 12.0----30.06-0.04 34.3 32.4----
2024-06-16 05:54 pm E 12.0 12.0----30.06- 34.7 32.5----
2024-06-16 05:48 pm E 12.0 12.0------ 35.2-----
2024-06-16 05:42 pmESE 12.0 12.0----30.06- 35.4 32.5----
2024-06-16 05:36 pmESE 12.0 13.0----30.06- 35.4 32.5----
2024-06-16 05:30 pmESE 13.0 13.0------ 35.4 32.5----
2024-06-16 05:24 pmESE 12.0 13.0------ 35.1 32.5----
2024-06-16 05:18 pmESE 12.0 13.0------ 34.9-----
2024-06-16 05:12 pmESE 13.0 13.0------ 35.1 32.5----
2024-06-16 05:06 pmESE 13.0 13.0------ 35.2 32.5----
2024-06-16 05:00 pm E 12.0 13.0----30.07-0.04- 32.5----
2024-06-16 04:54 pm E 12.0 13.0----30.07-- 32.7----
2024-06-16 04:48 pm E 12.0 13.0----30.07-- 32.7----
2024-06-16 04:42 pm E 12.0 13.0----30.08-- 32.7----
2024-06-16 04:36 pm E 12.0 13.0----30.08-- 32.7----
2024-06-16 04:30 pm E 12.0 13.0----30.08-- 32.7----
2024-06-16 04:24 pm E 12.0 13.0----30.08-- 32.7----
2024-06-16 04:18 pm E 12.0 13.0----30.08- 35.6 32.7----
2024-06-16 04:12 pm E 12.0 13.0----30.08- 35.2 32.7----
2024-06-16 04:06 pm E 13.0 13.0----30.08- 35.1 32.7----
2024-06-16 04:00 pm E 13.0 13.0----30.08-0.04 34.9 32.5----
2024-06-16 03:54 pm E 12.0 13.0----30.08- 34.9 32.7----
2024-06-16 03:48 pm E 12.0 13.0----30.09- 34.9 32.7----
2024-06-16 03:42 pm E 12.0 13.0----30.09- 34.9 32.7----
2024-06-16 03:36 pm E 12.0 13.0----30.09- 34.7 32.7----
2024-06-16 03:30 pm E 12.0 14.0----30.09- 34.7 32.7----
2024-06-16 03:24 pm E 13.0 13.0----30.09- 34.7 32.7----
2024-06-16 03:18 pm E 12.0 13.0----30.09- 34.5 32.9----
2024-06-16 03:12 pm E 12.0 12.0----30.09- 34.3 32.9----
2024-06-16 03:06 pm E 12.0 12.0----30.10- 34.3 32.9----
2024-06-16 03:00 pm E 11.1 12.0----30.10-0.02- 32.9----
2024-06-16 02:54 pm E 11.1 11.1----30.10-- 32.9----
2024-06-16 02:48 pm E 11.1 12.0----30.11- 34.3 32.9----
2024-06-16 02:42 pm E 11.1 12.0----30.10- 34.2 32.9----
2024-06-16 02:36 pm E 11.1 12.0----30.10- 34.2 32.9----
2024-06-16 02:30 pm E 12.0 12.0------ 34.2 32.9----
2024-06-16 02:24 pm E 11.1 12.0------ 34.3 32.9----
2024-06-16 02:18 pm E 11.1 12.0----30.11- 34.3 32.7----
2024-06-16 02:12 pm E 11.1 12.0----30.11- 34.5 32.7----
2024-06-16 02:06 pm E 11.1 12.0----30.11- 34.3 32.7----
2024-06-16 02:00 pm E 11.1 12.0----30.11-0.02 34.3 32.7----
2024-06-16 01:54 pm E 11.1 12.0----30.11- 34.3 32.7----
2024-06-16 01:48 pm E 11.1 12.0----30.11-------
2024-06-16 01:42 pm E 11.1 12.0----30.11-------
2024-06-16 01:36 pm E 11.1 12.0----30.11-------
2024-06-16 01:30 pm E 12.0 12.0----30.11- 34.7 32.7----
2024-06-16 01:24 pm E 11.1 12.0----30.11- 34.5 32.7----
2024-06-16 01:18 pm E 12.0 12.0----30.11-- 32.7----
2024-06-16 01:12 pm E 12.0 12.0----30.11-- 32.7----
2024-06-16 01:06 pm E 12.0 12.0----30.12-- 32.7----
2024-06-16 01:00 pm E 12.0 12.0----30.11-0.02 34.9 32.7----
2024-06-16 12:54 pm E 11.1 12.0----30.11- 35.1 32.7----
2024-06-16 12:48 pm E 11.1 12.0----30.11-- 32.7----
2024-06-16 12:42 pm E 11.1 12.0----30.11-- 32.7----
2024-06-16 12:36 pm E 11.1 12.0----30.11-- 32.7----
2024-06-16 12:30 pm E 11.1 12.0----30.11- 35.4 32.7----
2024-06-16 12:24 pm E 11.1 12.0----30.12- 35.4 32.7----
2024-06-16 12:18 pm E 11.1 11.1----30.12- 35.4 32.7----
2024-06-16 12:12 pm E 9.9 11.1----30.12- 35.2 32.7----
2024-06-16 12:06 pm E 11.1 12.0----30.12- 35.8 32.7----
2024-06-16 12:00 pm E 11.1 11.1----30.12-0.02 36.0 32.5----
2024-06-16 11:54 am E 11.1 12.0----30.12- 35.4 32.5----
2024-06-16 11:48 amENE 11.1 12.0----30.12- 35.4 32.5----
2024-06-16 11:42 amENE 11.1 12.0----30.12- 36.0 32.5----
2024-06-16 11:36 amENE 11.1 12.0----30.13- 36.7 32.5----
2024-06-16 11:30 amENE 11.1 11.1----30.13-- 32.4----
2024-06-16 11:24 amENE 9.9 11.1----30.13-- 32.4----
2024-06-16 11:18 amENE 9.9 9.9----30.13- 37.0 32.4----
2024-06-16 11:12 amENE 8.0 8.9----30.13- 37.2 32.4----
2024-06-16 11:06 amENE 7.0 8.0----30.13- 37.9 32.4----
2024-06-16 11:00 amENE 6.0 7.0----30.13-0.02- 32.2----
2024-06-16 10:54 amENE 7.0 7.0----30.13-- 32.2----
2024-06-16 10:48 amENE 7.0 7.0----30.14-- 32.2----
2024-06-16 10:42 am E 6.0 7.0----30.13-- 32.2----
2024-06-16 10:36 am E 6.0 7.0----30.13-- 32.2----
2024-06-16 10:30 am E 6.0 7.0----30.13- 38.5 32.2----
2024-06-16 10:24 am E 6.0 6.0----30.14- 38.7 32.2----
2024-06-16 10:18 am E 5.1 5.1----30.14- 39.7 32.2----
2024-06-16 10:12 am E 5.1 6.0----30.14- 39.4 32.2----
2024-06-16 10:06 am E 5.1 6.0----30.14- 39.2 32.2----
2024-06-16 10:00 amENE 5.1 6.0----30.14-0.02 38.7 32.2----
2024-06-16 09:54 amENE 6.0 6.0----30.14- 39.6 32.2----
2024-06-16 09:48 am E 5.1 6.0----30.14- 38.3 32.0----
2024-06-16 09:42 am E 4.1 4.1----30.14- 39.4 32.0----
2024-06-16 09:36 am E 2.9 4.1----30.14- 40.5 32.0----
2024-06-16 09:30 amENE 2.9 4.1----30.14- 39.4 32.0----
2024-06-16 09:24 amENE 1.9 2.9----30.14- 40.6 32.0----
2024-06-16 09:18 am E 1.9 1.9----30.14- 42.1 32.0----
2024-06-16 09:12 am SE 1.9 2.9----30.14- 43.3 32.0----
2024-06-16 09:06 am SE 1.9 2.9----30.14- 43.2 32.0----
2024-06-16 09:00 am SE 1.0 4.1----30.14-0.02 44.2 32.0----
2024-06-16 08:54 am S 2.9 4.1----30.14- 43.7 32.0----
2024-06-16 08:48 amSSE 1.0 2.9----30.14-- 32.0----
2024-06-16 08:42 am SE 1.9 2.9----30.14-- 32.0----
2024-06-16 08:36 am SE 1.9 2.9----30.14-- 32.0----
2024-06-16 08:30 am SE 1.9 2.9----30.14-- 32.0----
2024-06-16 08:24 amESE 1.9 2.9----30.14-- 32.0----
2024-06-16 08:18 amESE 1.9 1.9----30.14- 40.8-----
2024-06-16 08:12 am- 0.0 1.9----30.15- 43.5-----
2024-06-16 08:06 am E 1.0 1.9----30.15- 43.3-----
2024-06-16 08:00 am- 0.0 1.9----30.15-0.03 43.3 31.8----
2024-06-16 07:54 am SE 1.9 1.9----30.15- 40.3 31.8----
2024-06-16 07:48 am SE 1.9 1.9----30.15-- 31.8----
2024-06-16 07:42 am SE 1.9 2.9----30.15-- 31.8----
2024-06-16 07:36 am- 0.0 1.9----30.15-- 31.8----
2024-06-16 07:30 am- 0.0 1.0----30.15- 42.6 31.8----
2024-06-16 07:24 am- 0.0 1.0----30.15- 40.3 31.8----
2024-06-16 07:18 am- 0.0 0.0----30.15-- 31.8----
2024-06-16 07:12 am- 0.0 1.9----30.16-- 31.8----
2024-06-16 07:06 am- 0.0 1.9----30.16-- 31.8----
2024-06-16 07:00 am SE 1.9 2.9----30.16-0.02 38.3 31.8----
2024-06-16 06:54 am SE 2.9 4.1----30.16- 36.7 31.8----
2024-06-16 06:48 am SE 2.9 4.1----30.16-- 31.8----
2024-06-16 06:42 am SE 2.9 4.1----30.16-- 31.8----
2024-06-16 06:36 amESE 2.9 4.1----30.16-- 31.8----
2024-06-16 06:30 am-------30.16-- 31.8----
2024-06-16 06:24 am-------30.16-- 31.8----
2024-06-16 06:18 amESE 4.1 4.1----30.16- 37.8 31.8----
2024-06-16 06:12 am SE 2.9 2.9----30.16- 38.1 31.8----
2024-06-16 06:06 amESE 1.9 2.9----30.16- 38.5 31.8----
2024-06-16 06:00 amESE 2.9 2.9----30.16-0.02- 31.8----
2024-06-16 05:54 amESE 1.9 2.9----30.16-- 31.8----
2024-06-16 05:48 am SE 1.9 1.9----30.16- 39.2 31.8----
2024-06-16 05:42 am SE 1.9 2.9----30.16- 38.5 31.8----
2024-06-16 05:36 amESE 1.9 2.9----30.16- 38.1 31.8----
2024-06-16 05:30 am SE 2.9 4.1----30.17- 37.0 31.8----
2024-06-16 05:24 am SE 4.1 5.1----30.17- 36.0 31.8----
2024-06-16 05:18 am SE 1.9 2.9----30.17-- 31.8----
2024-06-16 05:12 amSSE 1.9 2.9----30.17-- 31.8----
2024-06-16 05:06 amSSE 1.9 4.1----30.17-- 31.8----
2024-06-16 05:00 amSSE 1.9 2.9----30.18-0.01 38.8 31.8----
2024-06-16 04:54 am- 0.0 1.9----30.17- 39.4 31.8----
2024-06-16 04:48 am- 0.0 1.9----30.17- 39.0 31.8----
2024-06-16 04:42 am- 0.0 2.9----30.17- 38.5 31.8----
2024-06-16 04:36 am SE 1.9 1.9----30.17- 38.1 31.8----
2024-06-16 04:30 am- 0.0 1.9----30.17- 39.2 31.8----
2024-06-16 04:24 am- 0.0 1.9----30.17- 39.4 31.8----
2024-06-16 04:18 am-------30.17- 37.2 31.8----
2024-06-16 04:12 am-------30.17- 36.7 31.8----
2024-06-16 04:06 am-------30.17- 37.6 31.8----
2024-06-16 04:00 amSSE 1.0 1.9----30.18-0.02 38.7 31.8----
2024-06-16 03:54 am W 1.0 1.9----30.18- 39.9 31.8----
2024-06-16 03:48 am NW 2.9 2.9----30.18- 40.5 31.8----
2024-06-16 03:42 amWNW 1.9 2.9----30.18- 39.9 31.8----
2024-06-16 03:36 am NW 2.9 2.9----30.18- 39.6 31.8----
2024-06-16 03:30 am- 0.0 1.0----30.18- 39.6 31.8----
2024-06-16 03:24 amWNW 1.0 1.0----30.18- 39.4 31.8----
2024-06-16 03:18 amWSW 1.0 1.9----30.18-- 31.8----
2024-06-16 03:12 amWSW 1.9 2.9----30.19-- 31.8----
2024-06-16 03:06 am SW 1.9 2.9----30.19-- 31.8----
2024-06-16 03:00 am SW 2.9 2.9----30.18-- 31.8----
2024-06-16 02:54 amSSW 2.9 4.1----30.19-- 31.8----
2024-06-16 02:48 amSSW 4.1 4.1----30.19-- 31.8----
2024-06-16 02:42 amSSW 5.1 5.1----30.19-- 32.0----
2024-06-16 02:36 am S 4.1 5.1----30.19-- 32.0----
2024-06-16 02:30 am S 4.1 5.1----30.19-- 32.0----
2024-06-16 02:24 am S 4.1 5.1----30.19-- 32.0----
2024-06-16 02:18 am S 4.1 4.1----30.19- 32.9 32.0----
2024-06-16 02:12 amSSE 1.0 1.9----30.19- 32.9 32.0----
2024-06-16 02:06 amSSE 1.0 1.9----30.19- 32.9 32.0----
2024-06-16 02:00 amSSE 1.0 2.9----30.19-0.02- 32.0----
2024-06-16 01:54 amSSE 1.0 1.9----30.19-- 32.0----
2024-06-16 01:48 am S 1.0 1.9----30.19- 32.0 32.0----
2024-06-16 01:42 am S 1.0 1.9----30.19- 31.8 32.0----
2024-06-16 01:36 am S 1.0 1.9----30.19- 32.2 32.0----
2024-06-16 01:30 am SW 1.9 2.9----30.19- 32.2 32.0----
2024-06-16 01:24 amSSW 1.9 4.1----30.19- 32.2 32.0----
2024-06-16 01:18 amSSW 1.9 2.9----30.19-- 32.0----
2024-06-16 01:12 amSSE 1.0 4.1----30.19-- 32.0----
2024-06-16 01:06 amSSE 4.1 4.1----30.20-- 32.0----
2024-06-16 01:00 am SE 2.9 4.1----30.20-0.01- 32.0----
2024-06-16 12:54 amSSE 2.9 4.1----30.20-- 32.0----
2024-06-16 12:48 am SE 2.9 4.1----30.20- 32.4 32.0----
2024-06-16 12:42 am SE 1.9 2.9----30.20- 32.5 32.0----
2024-06-16 12:36 am- 0.0 1.0----30.20- 32.4 32.0----
2024-06-16 12:30 am- 0.0 1.0----30.20- 32.4 32.0----
2024-06-16 12:24 am- 0.0 1.9----30.20- 32.2 32.0----
2024-06-16 12:18 am- 0.0 2.9----30.20- 32.4 32.0----
2024-06-16 12:12 am NW 1.9 1.9----30.20- 32.5 32.0----
2024-06-16 12:06 am- 0.0 1.0----30.20- 32.5 32.0----
2024-06-16 12:00 am- 0.0 0.0------ 35.6 32.0----
2024-06-15 11:54 pm- 0.0 1.0------ 35.1 32.0----
2024-06-15 11:48 pm SE 1.0 1.9----30.21- 35.4 32.0----
2024-06-15 11:42 pm- 0.0 2.9----30.21- 35.4 32.0----
2024-06-15 11:36 pm- 0.0 1.9----30.21- 33.6 32.2----
2024-06-15 11:30 pm- 0.0 1.0----30.21- 33.8 32.2----
2024-06-15 11:24 pm- 0.0 1.0----30.21- 33.8 32.2----
2024-06-15 11:18 pm- 0.0 1.9----30.21- 32.9 32.2----
2024-06-15 11:12 pm- 0.0 1.0----30.21- 33.1 32.2----
2024-06-15 11:06 pmENE 1.0 1.9----30.21- 32.5 32.2----
2024-06-15 11:00 pm- 0.0 1.0----30.21+0.00 33.1 32.2----
2024-06-15 10:54 pm- 0.0 1.9----30.21- 32.9 32.2----